When you browse on this site, cookies collect data to enhance your experience and personalize the content and advertising you see.
Visit our Privacy Policy to learn more. By continuing to use the site, you agree to this use of cookies and data.

Previsão horária em Miszkolc

Hoje, 3 Julho, Sexta-feira

Tempo Temperatura Precipitação Vento Pressão Humidade
00:00 +21°C° 0.4 mm 1 m/s 744 mmHg 92%
01:00 +21°C° 0 mm 1 m/s 744 mmHg 94%
02:00 +21°C° 0 mm 1 m/s 744 mmHg 94%
03:00 +20°C° 0 mm 1 m/s 744 mmHg 94%
04:00 +20°C° 0 mm 1 m/s 743 mmHg 94%
05:00 +21°C° 0 mm 1 m/s 744 mmHg 91%
06:00 +22°C° 0 mm 1 m/s 744 mmHg 88%
07:00 +24°C° 0 mm 1 m/s 745 mmHg 83%
08:00 +25°C° 0.1 mm 1 m/s 745 mmHg 78%
09:00 +26°C° 0.1 mm 1 m/s 745 mmHg 73%
10:00 +28°C° 0.1 mm 1 m/s 744 mmHg 68%
11:00 +28°C° 0.8 mm 1 m/s 745 mmHg 66%
12:00 +29°C° 0.8 mm 1 m/s 745 mmHg 64%
13:00 +29°C° 0 mm 1 m/s 745 mmHg 61%
14:00 +28°C° 0.5 mm 1 m/s 745 mmHg 63%
15:00 +28°C° 0.5 mm 1 m/s 745 mmHg 66%
16:00 +28°C° 0.5 mm 2 m/s 745 mmHg 69%
17:00 +26°C° 0.5 mm 2 m/s 745 mmHg 75%
18:00 +25°C° 0.5 mm 2 m/s 746 mmHg 81%
19:00 +23°C° 0.5 mm 2 m/s 746 mmHg 87%
20:00 +21°C° 0.1 mm 2 m/s 746 mmHg 88%
21:00 +20°C° 0.1 mm 2 m/s 746 mmHg 89%
22:00 +19°C° 0.1 mm 2 m/s 747 mmHg 89%
23:00 +19°C° 0 mm 2 m/s 747 mmHg 89%

Amanhã, 4 Julho, Sábado

Tempo Temperatura Precipitação Vento Pressão Humidade
00:00 +19°C° 0 mm 3 m/s 747 mmHg 88%
01:00 +19°C° 0 mm 3 m/s 748 mmHg 88%
02:00 +18°C° 0 mm 3 m/s 747 mmHg 88%
03:00 +18°C° 0 mm 3 m/s 747 mmHg 88%
04:00 +17°C° 0 mm 3 m/s 747 mmHg 88%
05:00 +19°C° 0 mm 3 m/s 748 mmHg 85%
06:00 +20°C° 0 mm 4 m/s 748 mmHg 82%
07:00 +21°C° 0 mm 4 m/s 748 mmHg 79%
08:00 +22°C° 0 mm 4 m/s 748 mmHg 75%
09:00 +23°C° 0 mm 4 m/s 748 mmHg 70%
10:00 +25°C° 0 mm 4 m/s 748 mmHg 66%
11:00 +26°C° 0 mm 4 m/s 748 mmHg 64%
12:00 +27°C° 0 mm 3 m/s 748 mmHg 61%
13:00 +28°C° 0 mm 3 m/s 748 mmHg 59%
14:00 +28°C° 0.1 mm 3 m/s 748 mmHg 60%
15:00 +28°C° 0.1 mm 3 m/s 747 mmHg 61%
16:00 +28°C° 0.1 mm 2 m/s 747 mmHg 62%
17:00 +26°C° 0.1 mm 2 m/s 747 mmHg 69%
18:00 +25°C° 0.1 mm 2 m/s 747 mmHg 75%
19:00 +23°C° 0.1 mm 2 m/s 747 mmHg 82%
20:00 +21°C° 0 mm 2 m/s 747 mmHg 82%
21:00 +20°C° 0 mm 2 m/s 748 mmHg 83%
22:00 +19°C° 0 mm 3 m/s 748 mmHg 83%
23:00 +19°C° 0 mm 3 m/s 748 mmHg 84%

Depois de amanhã, 5 Julho, Domingo

Tempo Temperatura Precipitação Vento Pressão Humidade
00:00 +19°C° 0 mm 2 m/s 748 mmHg 84%
01:00 +18°C° 0 mm 2 m/s 748 mmHg 85%
02:00 +18°C° 0 mm 2 m/s 748 mmHg 86%
03:00 +18°C° 0 mm 2 m/s 748 mmHg 87%
04:00 +17°C° 0 mm 2 m/s 748 mmHg 88%
05:00 +19°C° 0 mm 2 m/s 748 mmHg 84%
06:00 +20°C° 0 mm 2 m/s 748 mmHg 79%
07:00 +23°C° 0 mm 2 m/s 748 mmHg 75%
08:00 +24°C° 0 mm 2 m/s 748 mmHg 68%
09:00 +26°C° 0 mm 2 m/s 748 mmHg 62%
10:00 +28°C° 0 mm 2 m/s 748 mmHg 55%
11:00 +28°C° 0 mm 2 m/s 748 mmHg 52%
12:00 +29°C° 0 mm 2 m/s 748 mmHg 50%
13:00 +29°C° 0 mm 2 m/s 747 mmHg 48%
14:00 +29°C° 0 mm 1 m/s 747 mmHg 49%
15:00 +29°C° 0 mm 1 m/s 747 mmHg 50%
16:00 +29°C° 0 mm 1 m/s 747 mmHg 51%
17:00 +28°C° 0 mm 1 m/s 747 mmHg 58%
18:00 +26°C° 0 mm 1 m/s 747 mmHg 65%
19:00 +24°C° 0 mm 1 m/s 747 mmHg 72%
20:00 +23°C° 0 mm 1 m/s 747 mmHg 74%
21:00 +23°C° 0 mm 1 m/s 747 mmHg 76%
22:00 +22°C° 0 mm 1 m/s 747 mmHg 78%
23:00 +21°C° 0 mm 1 m/s 747 mmHg 79%

6 Julho, Segunda-feira

Tempo Temperatura Precipitação Vento Pressão Humidade
00:00 +21°C° 0 mm 1 m/s 746 mmHg 79%
01:00 +20°C° 0 mm 1 m/s 746 mmHg 80%
02:00 +20°C° 0 mm 1 m/s 746 mmHg 81%
03:00 +20°C° 0 mm 1 m/s 746 mmHg 82%
04:00 +19°C° 0 mm 1 m/s 746 mmHg 83%
05:00 +21°C° 0 mm 1 m/s 746 mmHg 79%
06:00 +20°C° 0 mm 0 m/s 746 mmHg 76%
07:00 +22°C° 0 mm 0 m/s 746 mmHg 72%
08:00 +24°C° 0 mm 0 m/s 745 mmHg 68%
09:00 +27°C° 0 mm 1 m/s 745 mmHg 64%
10:00 +29°C° 0 mm 1 m/s 745 mmHg 59%
11:00 +29°C° 0 mm 1 m/s 745 mmHg 57%
12:00 +30°C° 0 mm 1 m/s 744 mmHg 55%
13:00 +30°C° 0 mm 2 m/s 744 mmHg 52%
14:00 +30°C° 0.1 mm 2 m/s 744 mmHg 56%
15:00 +30°C° 0.1 mm 2 m/s 743 mmHg 59%
16:00 +29°C° 0.1 mm 2 m/s 743 mmHg 63%
17:00 +28°C° 0.2 mm 2 m/s 743 mmHg 69%
18:00 +27°C° 0.2 mm 2 m/s 743 mmHg 74%
19:00 +25°C° 0.2 mm 2 m/s 743 mmHg 80%
20:00 +24°C° 0.1 mm 2 m/s 743 mmHg 82%
21:00 +23°C° 0.1 mm 2 m/s 744 mmHg 84%
22:00 +21°C° 0.1 mm 2 m/s 744 mmHg 86%
23:00 +21°C° 0.1 mm 3 m/s 744 mmHg 87%

7 Julho, Terça-feira

Tempo Temperatura Precipitação Vento Pressão Humidade
00:00 +20°C° 0.1 mm 3 m/s 744 mmHg 88%
01:00 +20°C° 0.1 mm 4 m/s 745 mmHg 89%
02:00 +19°C° 0.1 mm 4 m/s 745 mmHg 86%
03:00 +19°C° 0.1 mm 5 m/s 745 mmHg 83%
04:00 +17°C° 0.1 mm 5 m/s 746 mmHg 81%
05:00 +17°C° 0 mm 5 m/s 746 mmHg 78%
06:00 +17°C° 0 mm 5 m/s 746 mmHg 75%
07:00 +17°C° 0 mm 5 m/s 747 mmHg 72%
08:00 +19°C° 0 mm 5 m/s 747 mmHg 68%
09:00 +20°C° 0 mm 5 m/s 747 mmHg 65%
10:00 +21°C° 0 mm 5 m/s 747 mmHg 61%
11:00 +22°C° 0 mm 4 m/s 747 mmHg 58%
12:00 +23°C° 0 mm 4 m/s 747 mmHg 56%
13:00 +23°C° 0 mm 4 m/s 747 mmHg 53%
14:00 +23°C° 0 mm 4 m/s 747 mmHg 55%
15:00 +24°C° 0 mm 3 m/s 747 mmHg 56%
16:00 +24°C° 0 mm 3 m/s 747 mmHg 58%
17:00 +21°C° 0 mm 3 m/s 747 mmHg 63%
18:00 +20°C° 0 mm 3 m/s 748 mmHg 68%
19:00 +19°C° 0 mm 2 m/s 748 mmHg 73%
20:00 +18°C° 0 mm 2 m/s 748 mmHg 74%
21:00 +17°C° 0 mm 2 m/s 749 mmHg 74%
22:00 +16°C° 0 mm 2 m/s 749 mmHg 74%
23:00 +16°C° 0 mm 2 m/s 749 mmHg 74%

8 Julho, Quarta-feira

Tempo Temperatura Precipitação Vento Pressão Humidade
00:00 +15°C° 0 mm 2 m/s 749 mmHg 74%
01:00 +14°C° 0 mm 3 m/s 750 mmHg 73%
02:00 +15°C° 0 mm 2 m/s 750 mmHg 76%
03:00 +14°C° 0 mm 2 m/s 750 mmHg 78%
04:00 +13°C° 0 mm 2 m/s 750 mmHg 81%
05:00 +15°C° 0 mm 2 m/s 750 mmHg 77%
06:00 +16°C° 0 mm 2 m/s 750 mmHg 74%
07:00 +18°C° 0 mm 2 m/s 751 mmHg 70%
08:00 +19°C° 0 mm 2 m/s 751 mmHg 66%
09:00 +20°C° 0 mm 2 m/s 751 mmHg 61%
10:00 +23°C° 0 mm 1 m/s 751 mmHg 57%
11:00 +23°C° 0 mm 1 m/s 751 mmHg 55%
12:00 +24°C° 0 mm 1 m/s 751 mmHg 54%
13:00 +25°C° 0 mm 2 m/s 751 mmHg 52%
14:00 +25°C° 0 mm 2 m/s 751 mmHg 53%
15:00 +24°C° 0 mm 2 m/s 750 mmHg 54%
16:00 +24°C° 0 mm 2 m/s 750 mmHg 55%
17:00 +23°C° 0.1 mm 2 m/s 750 mmHg 62%
18:00 +21°C° 0.1 mm 2 m/s 751 mmHg 68%
19:00 +20°C° 0.1 mm 1 m/s 751 mmHg 75%
20:00 +19°C° 0 mm 1 m/s 751 mmHg 77%
21:00 +18°C° 0 mm 1 m/s 751 mmHg 78%
22:00 +16°C° 0 mm 1 m/s 751 mmHg 80%
23:00 +16°C° 0 mm 1 m/s 752 mmHg 81%
Mostrar mais